Reading, PA

6:45 AM EDT on October 16, 2019 (GMT -0400)
Reading Regional-Spaatz

Weather History for KRDG - August, 2019

Change the Weather History Date:

Saturday, August 10, 2019

  Actual Average Record
Temperature  
Mean Temperature 71 °F 74 °F  
Max Temperature 82 °F 84 °F 98 °F (1949)
Min Temperature 59 °F 63 °F 51 °F (1972)
Degree Days  
Heating Degree Days 0 0  
Month to date heating degree days 0 0  
Since 1 June heating degree days 16 25  
Since 1 July heating degree days 0 1  
Cooling Degree Days 6 9  
Month to date cooling degree days 122 90  
Year to date cooling degree days 860 642  
Since 1 June cooling degree days 755 582  
Growing Degree Days 21 (Base 50)    
Moisture  
Dew Point 58 °F    
Average Humidity 69    
Maximum Humidity 97    
Minimum Humidity 40    
Precipitation  
Precipitation 0.00 in 0.12 in 3.01 in (1904)
Month to date precipitation 0.86 1.17  
Year to date precipitation 39.15 26.49  
Sea Level Pressure  
Sea Level Pressure 29.89 in    
Wind  
Wind Speed 7 mph (NW)    
Max Wind Speed 21 mph    
Max Gust Speed 28 mph    
Visibility 10 miles    
Events      
T = Trace of Precipitation, MM = Missing Value Source: NWS Daily Summary

Daily Weather History Graph

Daily Weather History Graph

Search for Another Location

Airport or City:

Astronomy

Aug. 10, 2019 Rise Set
Actual Time 6:09 AM EDT 8:08 PM EDT
Civil Twilight 5:39 AM EDT 8:37 PM EDT
Nautical Twilight 5:03 AM EDT 9:13 PM EDT
Astronomical Twilight 4:24 AM EDT 9:52 PM EDT
Moon 4:48 PM EDT (8/10) 1:44 AM EDT (8/10)
Length of Visible Light 14h 57m
Length of Day
13h 58m
Waxing Gibbous, 79% of the Moon is Illuminated
Aug 10
Waxing Gibbous
Aug 15
Full
Aug 23
Last Quarter
Aug 30
New
Sep 5
First Quarter

Hourly Weather History & Observations

Time (EDT) Temp. Heat Index Dew Point Humidity Pressure Visibility Wind Dir Wind Speed Gust Speed Precip Events Conditions
12:54 AM 66.9 °F - 60.1 °F 79% 29.86 in 10.0 mi Calm Calm - N/A   Scattered Clouds
1:54 AM 66.9 °F - 59.0 °F 76% 29.86 in 10.0 mi WNW 3.5 mph - N/A   Clear
2:54 AM 63.0 °F - 61.0 °F 93% 29.86 in 10.0 mi Calm Calm - N/A   Clear
3:54 AM 63.0 °F - 59.0 °F 87% 29.87 in 10.0 mi Calm Calm - N/A   Clear
4:54 AM 61.0 °F - 59.0 °F 93% 29.87 in 10.0 mi Calm Calm - N/A   Clear
5:54 AM 60.1 °F - 59.0 °F 96% 29.87 in 10.0 mi Calm Calm - N/A   Clear
6:54 AM 62.1 °F - 59.0 °F 90% 29.88 in 10.0 mi Calm Calm - N/A   Clear
7:54 AM 66.9 °F - 59.0 °F 76% 29.89 in 10.0 mi Calm Calm - 0.00 in   Clear
8:54 AM 72.0 °F - 59.0 °F 64% 29.91 in 10.0 mi WNW 9.2 mph - N/A   Clear
9:54 AM 73.9 °F - 60.1 °F 62% 29.91 in 10.0 mi WNW 10.4 mph - N/A   Clear
10:54 AM 75.0 °F - 62.1 °F 64% 29.90 in 10.0 mi WNW 5.8 mph - N/A   Clear
11:54 AM 79.0 °F - 59.0 °F 50% 29.89 in 10.0 mi WNW 17.3 mph 24.2 mph N/A   Partly Cloudy
12:54 PM 80.1 °F 80.4 °F 57.0 °F 45% 29.88 in 10.0 mi WNW 15.0 mph 23.0 mph N/A   Partly Cloudy
1:54 PM 82.0 °F 81.6 °F 55.9 °F 41% 29.87 in 10.0 mi West 17.3 mph 27.6 mph N/A   Scattered Clouds
2:54 PM 82.0 °F 81.6 °F 55.9 °F 41% 29.86 in 10.0 mi NW 15.0 mph - N/A   Scattered Clouds
3:54 PM 82.0 °F 81.7 °F 57.0 °F 42% 29.86 in 10.0 mi NW 13.8 mph - N/A   Scattered Clouds
4:54 PM 81.0 °F 80.7 °F 55.0 °F 41% 29.86 in 10.0 mi NW 11.5 mph - N/A   Scattered Clouds
5:54 PM 80.1 °F 80.1 °F 55.0 °F 42% 29.87 in 10.0 mi NNW 11.5 mph - N/A   Scattered Clouds
6:54 PM 79.0 °F - 55.9 °F 45% 29.87 in 10.0 mi NNW 6.9 mph - N/A   Clear
7:54 PM 75.9 °F - 57.0 °F 52% 29.88 in 10.0 mi NW 5.8 mph - N/A   Scattered Clouds
8:54 PM 73.9 °F - 57.0 °F 55% 29.91 in 10.0 mi NW 4.6 mph - N/A   Scattered Clouds
9:54 PM 71.1 °F - 57.0 °F 61% 29.94 in 10.0 mi North 4.6 mph - N/A   Scattered Clouds
10:54 PM 69.1 °F - 59.0 °F 70% 29.96 in 10.0 mi NW 3.5 mph - N/A   Clear
11:54 PM 64.9 °F - 59.0 °F 81% 29.97 in 10.0 mi Calm Calm - N/A   Clear